This demonstration page uses our WeatherBlox Daily Observations layout. Learn more.

Left ArrowRight Arrow

40.97296, -117.73568

Hourly Observations for August 13, 2020

Temp ( °F °C ) Dew Point ( °F °C ) Humidity (%) Winds ( mph kmh ) Pressure ( in mb ) Visibility ( mi km ) Precip ( " mm )
12:56 am 00:56 Clear 72 22.2 25 -3.9 17 17 Calm 29.90 1013 10 16 0.00 0.00
1:56 am 01:56 Clear 68 20 25 -3.9 20 20 Calm 29.91 1013 10 16 0.00 0.00
2:56 am 02:56 Clear 67 19.4 24 -4.4 20 20 S 8 13 29.92 1013 10 16 0.00 0.00
3:56 am 03:56 Clear 63 17.2 24 -4.4 23 23 Calm 29.93 1014 10 16 0.00 0.00
4:56 am 04:56 Clear 56 13.3 23 -5 28 28 S 7 11 29.96 1014 10 16 0.00 0.00
5:56 am 05:56 Clear 52 11.1 23 -5 32 32 SSE 12 19 29.98 1015 10 16 0.00 0.00
6:56 am 06:56 Sunny 58 14.4 21 -6.1 24 24 S 6 9 30.00 1016 10 16 0.00 0.00
7:56 am 07:56 Sunny 68 20 23 -5 18 18 S 6 9 30.00 1016 10 16 0.00 0.00
8:56 am 08:56 Sunny 76 24.4 24 -4.4 14 14 S 5 7 29.99 1016 10 16 0.00 0.00
9:56 am 09:56 Sunny 81 27.2 19 -7.2 10 10 VRB 5 7 29.98 1015 10 16 0.00 0.00
10:56 am 10:56 Sunny 85 29.4 11 -11.7 6 6 WSW 16 26 29.96 1015 10 16 0.00 0.00
11:56 am 11:56 Sunny 88 31.1 14 -10 6 6 W 12 19 29.96 1015 10 16 0.00 0.00
12:56 pm 12:56 Sunny 90 32.2 17 -8.3 7 7 SSW 10 17 29.94 1014 10 16 0.00 0.00
1:56 pm 13:56 Sunny 92 33.3 13 -10.6 5 5 SSW 18 30 29.93 1013 10 16 0.00 0.00
2:56 pm 14:56 Mostly Sunny 92 33.3 16 -8.9 6 6 VRB 3 6 29.91 1013 10 16 0.00 0.00
3:56 pm 15:56 Sunny 95 35 17 -8.3 6 6 W 12 19 29.90 1013 10 16 0.00 0.00
4:56 pm 16:56 Mostly Sunny 94 34.4 19 -7.2 6 6 W 21 33 29.91 1013 10 16 0.00 0.00
5:56 pm 17:56 Mostly Sunny 92 33.3 22 -5.6 8 8 WNW 16 26 29.92 1013 10 16 0.00 0.00
6:56 pm 18:56 Hazy 89 31.7 21 -6.1 8 8 WNW 14 22 29.91 1013 5 8 0.00 0.00
7:56 pm 19:56 Hazy 82 27.8 22 -5.6 11 11 WNW 8 13 29.92 1013 4 6 0.00 0.00
8:56 pm 20:56 Hazy 73 22.8 21 -6.1 14 14 SSW 8 13 29.94 1014 5 8 0.00 0.00
9:56 pm 21:56 Clear 72 22.2 23 -5 16 16 WSW 10 17 29.95 1014 10 16 0.00 0.00
10:56 pm 22:56 Clear 76 24.4 24 -4.4 14 14 WSW 13 20 29.95 1014 10 16 0.00 0.00
11:56 pm 23:56 Clear 75 23.9 28 -2.2 18 18 W 14 22 29.96 1015 10 16 0.00 0.00

Powered by AerisWeather